Cincinnati, OH

8:38 AM EST on December 09, 2019 (GMT -0500)
Cincinnati Municipal-Lunken

Weather History for KLUK - September, 2019

Change the Weather History Date:

Friday, September 13, 2019

  Actual Average Record
Temperature  
Mean Temperature 78 °F -  
Max Temperature 93 °F 82 °F 95 °F (1991)
Min Temperature 66 °F 59 °F 43 °F (1958)
Cooling Degree Days 14    
Growing Degree Days 28 (Base 50)    
Moisture  
Dew Point 69 °F    
Average Humidity 83    
Maximum Humidity 100    
Minimum Humidity 47    
Precipitation  
Precipitation 0.00 in - - ()
Sea Level Pressure  
Sea Level Pressure 30.11 in    
Wind  
Wind Speed 2 mph ()    
Max Wind Speed 15 mph    
Max Gust Speed 20 mph    
Visibility 5.3 miles    
Events Fog    
Averages and records for this station are not official NWS values.
T = Trace of Precipitation, MM = Missing Value Source: Averaged Metar Reports

Daily Weather History Graph

Daily Weather History Graph

Search for Another Location

Airport or City:

Astronomy

Sep. 13, 2019 Rise Set
Actual Time 7:17 AM EDT 7:49 PM EDT
Civil Twilight 6:50 AM EDT 8:16 PM EDT
Nautical Twilight 6:18 AM EDT 8:48 PM EDT
Astronomical Twilight 5:45 AM EDT 9:20 PM EDT
Moon 8:02 PM EDT (9/13) 6:33 AM EDT (9/13)
Length of Visible Light 13h 26m
Length of Day
12h 32m
Full, 100% of the Moon is Illuminated
Sep 13
Full
Sep 14
Full
Sep 21
Last Quarter
Sep 28
New
Oct 5
First Quarter

Hourly Weather History & Observations

Time (EDT) Temp. Heat Index Dew Point Humidity Pressure Visibility Wind Dir Wind Speed Gust Speed Precip Events Conditions
12:53 AM 72.0 °F - 70.0 °F 93% 30.11 in 6.0 mi Calm Calm - N/A   Clear
1:53 AM 71.1 °F - 70.0 °F 96% 30.11 in 5.0 mi Calm Calm - N/A   Clear
2:06 AM 70.0 °F - 69.1 °F 97% 30.13 in 1.8 mi Calm Calm - N/A   Clear
2:14 AM 71.1 °F - 70.0 °F 96% 30.12 in 3.0 mi Calm Calm - N/A   Clear
2:53 AM 70.0 °F - 70.0 °F 100% 30.12 in 5.0 mi Calm Calm - N/A   Scattered Clouds
3:42 AM 70.0 °F - 69.1 °F 97% 30.12 in 1.8 mi Calm Calm - N/A   Clear
3:53 AM 70.0 °F - 69.1 °F 97% 30.10 in 4.0 mi Calm Calm - N/A   Clear
4:10 AM 70.0 °F - 69.1 °F 97% 30.12 in 1.5 mi Calm Calm - N/A   Clear
4:28 AM 70.0 °F - 69.1 °F 97% 30.12 in 2.5 mi Calm Calm - N/A   Clear
4:37 AM 70.0 °F - 69.1 °F 97% 30.12 in 3.0 mi Calm Calm - N/A   Clear
4:53 AM 69.1 °F - 69.1 °F 100% 30.10 in 1.2 mi Calm Calm - N/A   Clear
4:55 AM 69.1 °F - 69.1 °F 100% 30.12 in 0.8 mi Calm Calm - N/A   Mist
5:29 AM 69.1 °F - 69.1 °F 100% 30.12 in 1.0 mi Calm Calm - N/A   Clear
5:53 AM 69.1 °F - 69.1 °F 100% 30.11 in 1.5 mi Calm Calm - N/A   Clear
6:01 AM 69.1 °F - 69.1 °F 100% 30.12 in 3.0 mi Calm Calm - N/A   Clear
6:12 AM 68.0 °F - 68.0 °F 100% 30.12 in 1.5 mi Calm Calm - N/A   Clear
6:14 AM 68.0 °F - 68.0 °F 100% 30.12 in 1.0 mi Calm Calm - N/A   Mist
6:21 AM 69.1 °F - 68.0 °F 96% 30.13 in 0.5 mi Calm Calm - N/A Fog Fog
6:32 AM 69.1 °F - 68.0 °F 96% 30.13 in 0.2 mi Calm Calm - N/A Fog Fog
6:48 AM 66.2 °F - 66.2 °F 100% 30.13 in 0.8 mi Calm Calm - N/A   Mist
6:53 AM 66.9 °F - 66.9 °F 100% 30.12 in 3.0 mi Calm Calm - N/A Fog Patches of Fog
6:56 AM 68.0 °F - 66.9 °F 96% 30.13 in 3.0 mi Calm Calm - N/A Fog Patches of Fog
7:04 AM 68.0 °F - 68.0 °F 100% 30.13 in 3.0 mi Calm Calm - N/A Fog Patches of Fog
7:53 AM 69.1 °F - 69.1 °F 100% 30.13 in 5.0 mi Calm Calm - N/A Fog Patches of Fog
8:53 AM 73.9 °F - 72.0 °F 93% 30.13 in 5.0 mi Calm Calm - N/A Fog Patches of Fog
9:53 AM 78.1 °F - 72.0 °F 81% 30.13 in 9.0 mi Calm Calm - N/A   Clear
10:53 AM 82.9 °F 88.0 °F 72.0 °F 69% 30.13 in 10.0 mi SSW 4.6 mph - N/A   Clear
11:53 AM 89.1 °F 96.0 °F 72.0 °F 57% 30.12 in 10.0 mi SSW 9.2 mph - N/A   Clear
12:53 PM 91.0 °F 96.6 °F 70.0 °F 50% 30.11 in 10.0 mi SSW 11.5 mph - N/A   Scattered Clouds
1:53 PM 91.9 °F 97.4 °F 70.0 °F 48% 30.10 in 10.0 mi SW 11.5 mph - N/A   Scattered Clouds
2:53 PM 91.0 °F 96.6 °F 70.0 °F 50% 30.08 in 10.0 mi SSW 13.8 mph 19.6 mph N/A   Scattered Clouds
3:53 PM 90.0 °F 94.5 °F 69.1 °F 50% 30.06 in 10.0 mi SW 15.0 mph - N/A   Partly Cloudy
4:53 PM 91.9 °F 96.9 °F 69.1 °F 47% 30.04 in 10.0 mi SW 13.8 mph - N/A   Scattered Clouds
5:53 PM 90.0 °F 94.5 °F 69.1 °F 50% 30.04 in 10.0 mi SW 10.4 mph - N/A   Scattered Clouds
6:53 PM 89.1 °F 92.9 °F 68.0 °F 50% 30.04 in 10.0 mi SW 10.4 mph 18.4 mph N/A   Clear
7:53 PM 82.9 °F 85.0 °F 66.0 °F 56% 30.05 in 10.0 mi SW 6.9 mph - N/A   Clear
8:53 PM 75.9 °F - 70.0 °F 82% 30.06 in 10.0 mi Calm Calm - N/A   Clear
9:53 PM 77.0 °F - 70.0 °F 79% 30.10 in 10.0 mi Calm Calm - N/A   Clear
10:53 PM 82.9 °F 86.5 °F 69.1 °F 63% 30.11 in 10.0 mi NW 6.9 mph - N/A   Clear
11:53 PM 81.0 °F 82.2 °F 63.0 °F 54% 30.12 in 10.0 mi WNW 8.1 mph - N/A   Clear